Regional Weather Roundup
Issued by NWS Portland, ME

Current Version | Previous Version | Graphics & Text | Print | Product List | Glossary Off
Versions: 1 2 3 4 5 6 7 8 9 10 11 12 13 14 15 16 17 18 19 20 21 22 23 24 25 26 27 28 29 30 31 32 33 34 35 36 37 38 39 40 41 42 43 44 45 46 47 48 49 50
000 ASUS41 KGYX 220110 RWRGYX WEATHER ROUNDUP FOR MAINE AND NEW HAMPSHIRE NATIONAL WEATHER SERVICE GRAY ME 900 PM EDT FRI SEP 21 2018 MEZ002-005-006-010-012-015-018-020-021-024-026-027-029-220200- MAINE CITY SKY/WX TMP DP RH WIND PRES REMARKS PORTLAND CLOUDY 64 59 83 S16G24 29.92F SANFORD CLOUDY 63 57 81 SW10 29.92F BAR HARBOR CLOUDY 61 56 83 S17G26 29.95F WISCASSET CLOUDY 63 57 81 S14G28 29.94F ROCKLAND CLOUDY 61 58 90 S12G20 29.95F FRYEBURG CLOUDY 62 58 86 S8 29.89F LEWISTONAUBURN CLOUDY 63 57 81 S7 29.90F AUGUSTA CLOUDY 61 56 83 S12G24 29.90F WATERVILLE CLOUDY 61 56 83 VRB7G17 29.86F BANGOR CLOUDY 61 56 83 S17G24 29.90F GREENVILLE N/A 54 54 100 S9G18 29.79F MILLINOCKET CLOUDY 57 53 86 SE9G20 29.82F HOULTON CLOUDY 56 54 93 S14G29 29.80F PRESQUE ISLE CLOUDY 56 52 86 S22G37 29.73F FRENCHVILLE CLOUDY 54 50 86 S15G32 29.68F CARIBOU CLOUDY 56 51 84 S16G26 29.70F $$ NHZ002-005-008-009-011-012-014-220200- NEW HAMPSHIRE CITY SKY/WX TMP DP RH WIND PRES REMARKS PORTSMOUTH CLOUDY 65 56 75 S9 29.93F ROCHESTER CLOUDY 63 58 83 S9 29.93F NASHUA CLOUDY 66 61 84 VRB7 29.95F MANCHESTER CLOUDY 66 59 78 S14 29.92F CONCORD CLOUDY 65 59 81 S10 29.92F LACONIA CLOUDY 64 58 80 S10 29.90F PLYMOUTH CLOUDY 63 58 83 CALM 29.89F BERLIN CLOUDY 61 57 87 SE7 29.82F WHITEFIELD CLOUDY 68 59 73 SW7G18 29.81F JAFFREY CLOUDY 64 61 90 SW13 29.96F KEENE CLOUDY N/A N/A N/A S16G22 29.93F LEBANON CLOUDY 66 58 75 S16G24 29.86F MT WASHINGTON FOG 48 48 100 SW45G60 N/A VSB 0 $$ VTZ005-007-008-220200- VERMONT CITY SKY/WX TMP DP RH WIND PRES REMARKS ST JOHNSBURY N/A 64 60 87 MISG 29.78F MONTPELIER CLOUDY 64 62 93 S14 29.84F BURLINGTON MOCLDY 70 61 73 S28G44 29.70F $$ MAZ007-012-024-CTZ003-RIZ002-NYZ038-NYZ072-220200- SOUTHERN NEW ENGLAND AND NY CITY SKY/WX TMP DP RH WIND PRES REMARKS BOSTON MOCLDY 67 60 78 S16 29.97F WORCESTER CLOUDY 63 60 90 SW18G24 29.99S NANTUCKET FAIR 65 61 87 S14 30.08F PROVIDENCE FAIR 66 62 87 S13 30.02F HARTFORD CLOUDY 69 63 81 S15 29.97F ALBANY MOCLDY 69 62 78 S14G26 29.88R NEW YORK CITY CLOUDY 74 64 71 S12G20 30.01R $$ ANZ081-ANZ082-ANZ150-NHZ014-MEZ023>029-220200- COASTAL MARINE OBSERVATIONS STATION/POSITION TIME TEMP WIND PRES WAVE AIR SEA DIR/SP/G HT/PER (UTC) (F) (DEG/KT/KT) (MB) (FT/S) MOUNT DESERT ROC 0100 61 180/ 24/ 27 1014.7F MATINICUS ROCK 0000 61 190/ 24/ 26 1015.3F ISLE OF SHOALS 0000 64 190/ 26/ 28 1014.2F JEFFREYS LEDGE 0006 63 N/A 6/ 5 $$ .............KEY.............. WCI - WIND CHILL TC - TEMPERATURE IN CELSIUS VSB - VISIBILITY IN MILES HX - HEAT INDEX FAIR- INDICATES FEW OR NO CLOUDS BELOW 12,000 FT, WITH NO SIGNIFICANT WEATHER AND/OR OBSTRUCTIONS TO VISIBILITY.

USA.gov is the U.S. government's official web portal to all federal, state and local government web resources and services.